Zurück zum Katalog

ATLAS 5 CENTAUR DEB

LostHEO
NORAD 47251·DEBRIS·🇺🇸 United States

Gestartet Oct 17, 2018 von Cape Canaveral Space Force Station

Loading…

Nächste Überflüge (nächste 24 Stunden)

TLE

VeraltetSource: Space-Track

Epoche: Feb 6, 2021, 11:36 UTC

1 47251U 18079EK  21037.48375885 -.00000067  00000-0  00000+0 0  9998
2 47251  11.4148 203.5630 4591054   6.7066 357.6879  1.94578946  1348

Verfolge ATLAS 5 CENTAUR DEB in Echtzeit mit AllMySat

Download on the App Store